[[{"header":{"parameterUnit":"m.s-1","parameterCategory":1,"la1":30.2991,"la2":30.254,"lo1":-89.0895,"lo2":-89.0444,"dy":0.0017,"dx":0.0017,"nx":28,"ny":28,"refTime":"2023-04-29T21:00:00:Z","depth":0,"parameterNumber":2,"parameterNumberName":"U-component_of_WINDS"},"data":[0,0,0,0,0,0,0,0,0,0,0,0,0,0,0,0,0,0,0,0,0,0,0,0,0,0,0,0,0,0,0,0,0,0,0,0,0,0,0,0,0,0,0,0,0,0,0,0,0,0,0,0,0,0,0,0,0,0,-0.4458,-0.446,0,-0.4612,-0.4614,-0.4615,-0.475,-0.4752,-0.4753,-0.4755,-0.4914,-0.4917,-0.4919,0,0,0,0,0,0,0,0,0,0,0,0,0,-0.4283,-0.4285,-0.4458,-0.446,-0.4462,-0.4612,-0.4614,-0.4616,-0.475,-0.4752,-0.4754,-0.4755,-0.4913,-0.4916,-0.492,0,0,0,0,0,0,0,0,0,0,0,0,0,-0.439,-0.4286,-0.4457,-0.4546,-0.4556,-0.4611,-0.4614,-0.4616,-0.4749,-0.4752,-0.4754,-0.4756,-0.4912,-0.4916,-0.492,-0.49,0,0,-0.4933,-0.4935,0,0,0,0,0,0,0,0,-0.4384,-0.4396,-0.4532,-0.454,-0.4551,-0.4664,-0.4611,-0.4712,-0.4749,-0.4676,-0.4755,-0.4757,-0.4829,-0.484,-0.4864,-0.4908,-0.4914,-0.4933,-0.4936,-0.4938,-0.4939,0,0,0,0,0,0,0,-0.4376,-0.439,-0.4519,-0.4533,-0.4545,-0.458,-0.4598,-0.463,-0.4738,-0.4683,-0.4693,-0.4709,-0.4835,-0.486,-0.4869,-0.4917,-0.4933,-0.4937,-0.494,-0.4941,-0.4954,-0.4952,0,0,0,0,0,0,-0.4355,-0.4383,-0.4514,-0.4524,-0.4471,-0.4581,-0.4601,-0.4626,-0.4738,-0.4757,-0.4707,-0.4715,-0.4851,-0.4864,-0.4875,-0.486,-0.4938,-0.4942,-0.4944,-0.4956,-0.4954,-0.4951,0,0,0,0,0,0,-0.435,-0.4365,-0.4508,-0.4456,-0.4477,-0.4582,-0.4608,-0.4627,-0.4652,-0.4756,-0.4776,-0.4712,-0.4854,-0.4869,-0.4893,-0.4867,-0.4944,-0.4947,-0.4959,-0.4955,-0.4952,-0.4829,0,0,0,0,0,0,-0.4345,-0.4363,-0.4355,-0.4455,-0.4479,-0.4522,-0.4607,-0.4629,-0.4659,-0.4671,-0.4767,-0.4785,-0.4857,-0.4886,-0.4897,-0.4875,-0.4951,-0.4962,-0.4957,-0.4953,-0.4835,-0.4822,-0.481,0,0,0,0,0,-0.4338,-0.4314,-0.4354,-0.4369,-0.4472,-0.452,-0.4534,-0.4617,-0.4656,-0.465,-0.4718,-0.4782,-0.4868,-0.4888,-0.4901,-0.4879,-0.4964,-0.4958,-0.4954,-0.4841,-0.4824,-0.481,0,0,0,0,0,0,-0.4209,-0.4329,-0.4374,-0.4382,-0.444,-0.4543,-0.4537,-0.4596,-0.4644,-0.4653,-0.4755,-0.4776,-0.4789,-0.4837,-0.4856,-0.4867,-0.4925,-0.4922,-0.4835,-0.4819,-0.4807,-0.4794,-0.4954,0,0,0,0,0,-0.4181,-0.4209,-0.4313,-0.431,-0.4337,-0.4432,-0.4456,-0.4515,-0.4579,-0.4604,-0.4673,-0.4734,-0.4775,-0.48,-0.4844,-0.4844,-0.4867,-0.4836,-0.4823,-0.4811,-0.4808,-0.4813,-0.4801,-0.4935,-0.4935,-0.4935,0,0,-0.4124,-0.4193,-0.4205,-0.4286,-0.4337,-0.4365,-0.4451,-0.4477,-0.4499,-0.4609,-0.4636,-0.4688,-0.4763,-0.4775,-0.4784,-0.4816,-0.4776,-0.4805,-0.4795,-0.4798,-0.4807,-0.4794,-0.4782,-0.4932,-0.4932,-0.4933,0,0,-0.4035,-0.4089,-0.4093,-0.4144,-0.4221,-0.4285,-0.4285,-0.438,-0.4419,-0.4448,-0.4531,-0.456,-0.4628,-0.4678,-0.4713,-0.4644,-0.4706,-0.4656,-0.4588,-0.4592,-0.4581,-0.4572,-0.4549,-0.4539,-0.4652,-0.4652,-0.4652,0,-0.3954,-0.3999,-0.4088,-0.4109,-0.4143,-0.4243,-0.4248,-0.4293,-0.4381,-0.4402,-0.4437,-0.4526,-0.4583,-0.4609,-0.4592,-0.4617,-0.4622,-0.4645,-0.4575,-0.4567,-0.456,-0.4539,-0.453,-0.4646,-0.4646,-0.4647,-0.4648,0,-0.3897,-0.3926,-0.3921,-0.4002,-0.4036,-0.4048,-0.414,-0.4164,-0.422,-0.4281,-0.431,-0.4382,-0.4443,-0.4454,-0.4509,-0.4488,-0.4506,-0.4556,-0.4616,-0.4539,-0.4521,-0.4514,-0.4636,-0.4638,-0.464,-0.4642,0,0,-0.3729,-0.386,-0.3857,-0.3896,-0.3989,-0.4015,-0.4033,-0.4092,-0.411,-0.4168,-0.4187,-0.4244,-0.4292,-0.433,-0.4393,-0.4396,-0.4339,-0.4447,-0.4451,-0.4425,-0.4321,-0.4282,-0.4271,-0.438,-0.4379,-0.4378,-0.4315,0,-0.3655,-0.3692,-0.3774,-0.3786,-0.3815,-0.3912,-0.3929,-0.3988,-0.4046,-0.408,-0.4145,-0.4184,-0.4243,-0.4268,-0.4275,-0.4344,-0.4319,-0.435,-0.44,-0.44,-0.4377,-0.4262,-0.4221,-0.4157,-0.4309,-0.4307,-0.4307,0,-0.3573,-0.3624,-0.3639,-0.3732,-0.3748,-0.376,-0.3822,-0.3853,-0.3924,-0.3966,-0.401,-0.4079,-0.4106,-0.4161,-0.42,-0.4219,-0.4245,-0.4281,-0.4281,-0.4289,-0.4348,-0.4266,-0.4139,-0.4129,-0.4296,-0.4297,-0.4298,0,-0.3449,-0.3522,-0.3541,-0.3572,-0.368,-0.3687,-0.3733,-0.3806,-0.3837,-0.3892,-0.3913,-0.397,-0.4001,-0.4044,-0.4127,-0.416,-0.4157,-0.4219,-0.4194,-0.4191,-0.4188,-0.4187,-0.4063,-0.4204,-0.4204,-0.4205,-0.4205,0,-0.3358,-0.3363,-0.3487,-0.3498,-0.3508,-0.3603,-0.361,-0.3665,-0.373,-0.3755,-0.3843,-0.3865,-0.3974,-0.4009,-0.4074,-0.4097,-0.4111,-0.4146,-0.4163,-0.4138,-0.4133,-0.4156,-0.4162,-0.4202,-0.4203,-0.4203,-0.4204,0,-0.3221,-0.3304,-0.3331,-0.3432,-0.3458,-0.346,-0.3548,-0.3563,-0.3627,-0.3658,-0.367,-0.377,-0.3816,-0.3904,-0.3975,-0.4019,-0.4028,-0.4058,-0.4003,-0.4014,-0.3983,-0.3985,-0.387,-0.386,-0.4006,-0.4004,-0.4003,0,-0.3157,-0.3163,-0.3265,-0.3288,-0.333,-0.3365,-0.3398,-0.3492,-0.3522,-0.3604,-0.361,-0.3663,-0.371,-0.3779,-0.3859,-0.3914,-0.3947,-0.3903,-0.3956,-0.393,-0.3947,-0.3945,-0.3947,-0.389,-0.3888,-0.3887,-0.3885,0,-0.3035,-0.3076,-0.3118,-0.3174,-0.321,-0.3259,-0.3314,-0.3328,-0.3435,-0.3464,-0.3512,-0.3549,-0.3621,-0.3673,-0.374,-0.379,-0.3856,-0.3868,-0.3865,-0.3839,-0.3807,-0.3825,-0.397,-0.387,-0.3872,-0.3873,-0.3873,-0.3874,-0.2933,-0.2944,-0.3017,-0.3061,-0.3112,-0.3161,-0.3181,-0.3247,-0.3288,-0.3354,-0.3408,-0.3451,-0.3525,-0.3621,-0.3667,-0.3704,-0.3735,-0.373,-0.3729,-0.3727,-0.3717,-0.3801,-0.3716,-0.3717,-0.3717,-0.3718,-0.3718,0,-0.2816,-0.2868,-0.2908,-0.2981,-0.3016,-0.3074,-0.3138,-0.3164,-0.3201,-0.3263,-0.3308,-0.3364,-0.3415,-0.3499,-0.3558,-0.3571,-0.3603,-0.3584,-0.3584,-0.3594,-0.3685,-0.3682,-0.3557,-0.3557,-0.3557,-0.3557,-0.3557,-0.3557,-0.2759,-0.278,-0.283,-0.2878,-0.2932,-0.2974,-0.3005,-0.3052,-0.3102,-0.316,-0.3203,-0.3257,-0.3329,-0.3394,-0.3444,-0.3468,-0.3486,-0.3456,-0.3489,-0.3573,-0.3588,-0.3602,-0.36,-0.3459,-0.3459,-0.3396,-0.3396,-0.3395]},{"header":{"parameterUnit":"m.s-1","parameterCategory":1,"la1":30.2991,"la2":30.254,"lo1":-89.0895,"lo2":-89.0444,"dy":0.0017,"dx":0.0017,"nx":28,"ny":28,"refTime":"2023-04-29T21:00:00:Z","depth":0,"parameterNumber":3,"parameterNumberName":"V-component_of_WINDS"},"data":[0,0,0,0,0,0,0,0,0,0,0,0,0,0,0,0,0,0,0,0,0,0,0,0,0,0,0,0,0,0,0,0,0,0,0,0,0,0,0,0,0,0,0,0,0,0,0,0,0,0,0,0,0,0,0,0,0,0,5.7576,5.7576,0,5.7544,5.7543,5.7543,5.7509,5.7508,5.7508,5.7507,5.7472,5.7471,5.7471,0,0,0,0,0,0,0,0,0,0,0,0,0,5.7606,5.7606,5.7576,5.7576,5.7575,5.7544,5.7543,5.7543,5.7509,5.7508,5.7508,5.7507,5.7472,5.7471,5.7471,0,0,0,0,0,0,0,0,0,0,0,0,0,5.7586,5.7606,5.7576,5.7555,5.7552,5.7544,5.7543,5.7543,5.7509,5.7508,5.7508,5.7507,5.7472,5.7471,5.7471,5.748,0,0,5.7468,5.7468,0,0,0,0,0,0,0,0,5.7587,5.7584,5.7558,5.7556,5.7554,5.753,5.7541,5.7522,5.7509,5.7525,5.7507,5.7507,5.7491,5.7489,5.7484,5.7478,5.7477,5.7468,5.7468,5.7467,5.7467,0,0,0,0,0,0,0,5.7588,5.7586,5.7563,5.7558,5.7555,5.7546,5.7542,5.7537,5.7513,5.7524,5.7521,5.7518,5.749,5.7485,5.7483,5.7476,5.7468,5.7467,5.7467,5.7467,5.7477,5.7478,0,0,0,0,0,0,5.7593,5.7587,5.7564,5.7562,5.7569,5.7546,5.7542,5.7538,5.7513,5.7508,5.7519,5.7517,5.7487,5.7484,5.7482,5.7492,5.7467,5.7467,5.7466,5.7476,5.7477,5.7478,0,0,0,0,0,0,5.7594,5.7592,5.7566,5.7574,5.757,5.7546,5.7542,5.7538,5.7533,5.7509,5.7504,5.7519,5.7486,5.7483,5.7481,5.749,5.7466,5.7466,5.7475,5.7477,5.7478,5.7512,0,0,0,0,0,0,5.7595,5.7592,5.7596,5.7574,5.757,5.7566,5.7543,5.7538,5.7532,5.7529,5.7507,5.7503,5.7485,5.7482,5.748,5.7489,5.7465,5.7475,5.7476,5.7477,5.751,5.7514,5.7518,0,0,0,0,0,5.7596,5.7606,5.7596,5.7594,5.7574,5.7567,5.7564,5.7544,5.7533,5.7536,5.7521,5.7504,5.749,5.7483,5.748,5.7488,5.7474,5.7476,5.7477,5.7508,5.7514,5.7518,0,0,0,0,0,0,5.7628,5.7603,5.7592,5.7595,5.7583,5.7561,5.7565,5.755,5.7541,5.7538,5.7513,5.7509,5.751,5.7499,5.7491,5.7497,5.7479,5.7481,5.7504,5.7509,5.7513,5.7516,5.7464,0,0,0,0,0,5.7636,5.7633,5.761,5.7615,5.761,5.7589,5.7585,5.7571,5.7557,5.7552,5.7536,5.7523,5.7516,5.7511,5.7503,5.7508,5.7503,5.7513,5.7517,5.752,5.7522,5.7524,5.7529,5.7484,5.7484,5.7484,0,0,5.7651,5.7637,5.7636,5.7621,5.7611,5.7608,5.7585,5.7582,5.7579,5.7551,5.7549,5.7537,5.7521,5.7523,5.7523,5.7514,5.7533,5.7522,5.7525,5.7525,5.7527,5.7531,5.7535,5.7485,5.7484,5.7484,0,0,5.7678,5.7666,5.767,5.766,5.7645,5.763,5.7631,5.7611,5.7603,5.76,5.7579,5.7575,5.7563,5.7553,5.7546,5.757,5.7554,5.7568,5.7588,5.7591,5.7595,5.7598,5.7608,5.7611,5.7569,5.7569,5.7569,0,5.7698,5.7694,5.7673,5.7672,5.7667,5.7642,5.7645,5.7636,5.7619,5.7615,5.7605,5.759,5.7577,5.7577,5.7583,5.7578,5.7579,5.757,5.7596,5.7599,5.7602,5.761,5.7614,5.7571,5.7571,5.7571,5.7571,0,5.772,5.7717,5.7722,5.7707,5.7702,5.7703,5.7682,5.7679,5.7666,5.7653,5.7651,5.7635,5.7624,5.7622,5.7608,5.762,5.7615,5.7601,5.7583,5.7608,5.7616,5.7619,5.7574,5.7573,5.7573,5.7572,0,0,5.7766,5.7741,5.7743,5.7736,5.7718,5.7715,5.7715,5.7705,5.7703,5.7692,5.7692,5.7682,5.767,5.7662,5.7647,5.7649,5.7671,5.7635,5.7634,5.7643,5.7684,5.7695,5.77,5.766,5.766,5.7661,5.7686,0,5.779,5.779,5.7772,5.7777,5.7774,5.7751,5.7751,5.7739,5.7727,5.7722,5.7708,5.7703,5.7686,5.7681,5.7683,5.7668,5.7679,5.7665,5.7659,5.7659,5.7665,5.7703,5.7715,5.774,5.7688,5.7689,5.7689,0,5.7818,5.781,5.7815,5.7798,5.7796,5.7796,5.7786,5.7782,5.7769,5.776,5.7752,5.7735,5.7734,5.7717,5.7715,5.7706,5.7703,5.7695,5.7695,5.7695,5.7676,5.7705,5.7747,5.7751,5.7694,5.7693,5.7693,0,5.7853,5.7843,5.7844,5.7839,5.7819,5.782,5.7811,5.7797,5.7792,5.7783,5.778,5.7771,5.7766,5.7759,5.774,5.7729,5.774,5.7721,5.7733,5.7733,5.7737,5.7737,5.778,5.7733,5.7733,5.7733,5.7733,0,5.7882,5.7886,5.786,5.7861,5.7865,5.7844,5.7848,5.7837,5.7825,5.7824,5.7802,5.7801,5.7776,5.7772,5.7757,5.7758,5.7755,5.7748,5.7744,5.7751,5.7752,5.7748,5.7747,5.7734,5.7733,5.7733,5.7733,0,5.7921,5.7904,5.7904,5.7885,5.788,5.7884,5.7867,5.7868,5.7854,5.7853,5.7851,5.783,5.7824,5.7805,5.7793,5.7783,5.779,5.7781,5.7795,5.7793,5.7806,5.7805,5.7849,5.7854,5.7803,5.7803,5.7804,0,5.7941,5.7944,5.7926,5.7924,5.7916,5.7913,5.7909,5.7888,5.7884,5.787,5.7872,5.7865,5.7858,5.785,5.7833,5.7825,5.7817,5.7833,5.7816,5.7823,5.7819,5.7819,5.782,5.7837,5.7838,5.7838,5.7839,0,5.798,5.7971,5.7966,5.7959,5.7955,5.7947,5.7939,5.7938,5.7915,5.7912,5.7906,5.7901,5.7891,5.7884,5.7874,5.7864,5.7848,5.7844,5.7847,5.7854,5.7862,5.7859,5.7806,5.7843,5.7843,5.7843,5.7842,5.7842,5.8011,5.8013,5.8,5.7996,5.7987,5.798,5.798,5.7967,5.7962,5.7953,5.7941,5.7937,5.7924,5.7908,5.79,5.7897,5.7888,5.7891,5.7892,5.7893,5.7897,5.7862,5.7894,5.7894,5.7894,5.7894,5.7894,0,5.8049,5.804,5.8036,5.8025,5.8022,5.8008,5.7998,5.7996,5.7993,5.7983,5.7977,5.7971,5.7965,5.7948,5.794,5.7941,5.7933,5.794,5.794,5.7938,5.7905,5.7904,5.7946,5.7946,5.7946,5.7946,5.7946,5.7946,5.8069,5.8071,5.8062,5.806,5.8051,5.8048,5.8044,5.8037,5.8029,5.8024,5.8019,5.8008,5.7995,5.7987,5.798,5.7975,5.7974,5.7983,5.7976,5.7945,5.794,5.7936,5.7935,5.7983,5.7983,5.801,5.801,5.801]}]]